Osijek - Cepin, Croatia

8:51 AM CEST on August 20, 2017 (GMT +0200)
Osijek - Cepin

Weather History for LDOS - October, 2012

Change the Weather History Date:

Tuesday, October 9, 2012

  Actual Average Record
Temperature  
Mean Temperature 52 °F -  
Max Temperature 66 °F - - ()
Min Temperature 37 °F - - ()
Degree Days  
Heating Degree Days 14    
Growing Degree Days 2 (Base 50)    
Moisture  
Dew Point 38 °F    
Average Humidity 65    
Maximum Humidity 93    
Minimum Humidity 30    
Precipitation  
Precipitation 0.00 in - - ()
Sea Level Pressure  
Sea Level Pressure 29.93 in    
Wind  
Wind Speed 6 mph ()    
Max Wind Speed 17 mph    
Max Gust Speed -    
T = Trace of Precipitation, MM = Missing Value Source: Averaged Metar Reports

Daily Weather History Graph

Daily Weather History Graph

Search for Another Location

Airport or City:

Trip Planner

Search our weather history database for the weather conditions in past years. The results will help you decide how hot, cold, wet, or windy it might be!

Date:

Astronomy

Oct. 09, 2012 Rise Set
Actual Time 6:54 AM CEST 6:10 PM CEST
Civil Twilight 6:24 AM CEST 6:40 PM CEST
Nautical Twilight 5:50 AM CEST 7:14 PM CEST
Astronomical Twilight 5:15 AM CEST 7:48 PM CEST
Moon No Moon Rise 2:43 PM CEST (10/9)
Length of Visible Light 12h 15m
Length of Day
11h 16m
Last Quarter, 39% of the Moon is Illuminated
Oct 9
Last Quarter
Oct 15
New
Oct 22
First Quarter
Oct 29
Full
Nov 7
Last Quarter

Hourly Weather History & Observations

Time (CEST) Temp. Windchill Dew Point Humidity Pressure Visibility Wind Dir Wind Speed Gust Speed Precip Events Conditions
12:00 AM 42.8 °F 39.3 °F 41.0 °F 93% 30.09 in - ESE 5.8 mph - N/A   Clear
12:30 AM 42.8 °F 39.3 °F 41.0 °F 93% 30.06 in - ESE 5.8 mph - N/A   Clear
1:00 AM 42.8 °F 41.1 °F 41.0 °F 93% 30.06 in - SE 3.5 mph - N/A   Clear
1:30 AM 42.8 °F - 41.0 °F 93% 30.06 in - Calm Calm - N/A   Clear
2:00 AM 39.2 °F 35.9 °F 37.4 °F 93% 30.06 in - SE 4.6 mph - N/A   Clear
2:30 AM 39.2 °F 35.9 °F 37.4 °F 93% 30.06 in - South 4.6 mph - N/A   Clear
3:00 AM 39.2 °F 35.9 °F 37.4 °F 93% 30.04 in - ESE 4.6 mph - N/A   Clear
3:30 AM 37.4 °F 33.8 °F 35.6 °F 93% 30.04 in - ESE 4.6 mph - N/A   Clear
4:00 AM 37.4 °F 32.1 °F 35.6 °F 93% 30.01 in - ESE 6.9 mph - N/A   Clear
4:30 AM 37.4 °F 32.1 °F 35.6 °F 93% 30.01 in - ESE 6.9 mph - N/A   Clear
5:00 AM 39.2 °F 35.0 °F 37.4 °F 93% 30.01 in - ESE 5.8 mph - N/A   Clear
5:30 AM 39.2 °F 34.2 °F 37.4 °F 93% 30.01 in - SE 6.9 mph - N/A   Clear
6:00 AM 39.2 °F 35.9 °F 37.4 °F 93% 29.98 in - ESE 4.6 mph - N/A   Clear
6:30 AM 39.2 °F 35.0 °F 37.4 °F 93% 29.98 in - ESE 5.8 mph - N/A   Clear
7:00 AM 39.2 °F 33.6 °F 37.4 °F 93% 29.98 in - ESE 8.1 mph - N/A   Clear
7:30 AM 37.4 °F 32.1 °F 35.6 °F 93% 29.98 in - ESE 6.9 mph - N/A   Clear
8:00 AM 39.2 °F 34.2 °F 37.4 °F 93% 29.98 in - ESE 6.9 mph - N/A   Clear
8:30 AM 42.8 °F 38.0 °F 41.0 °F 93% 29.98 in - SE 8.1 mph - N/A   Clear
9:00 AM 46.4 °F 41.9 °F 42.8 °F 87% 29.98 in - SSE 9.2 mph - N/A   Clear
9:30 AM 50.0 °F - 42.8 °F 76% 29.95 in - SSE 11.5 mph - N/A   Clear
10:00 AM 51.8 °F - 41.0 °F 67% 29.95 in - SSE 11.5 mph - N/A   Clear
10:30 AM 53.6 °F - 41.0 °F 62% 29.95 in - SE 13.8 mph - N/A   Clear
11:00 AM 57.2 °F - 39.2 °F 51% 29.95 in - SE 17.3 mph - N/A   Clear
11:30 AM 59.0 °F - 39.2 °F 48% 29.92 in - SE 17.3 mph - N/A   Clear
12:00 PM 60.8 °F - 37.4 °F 42% 29.92 in - SSE 15.0 mph - N/A   Clear
12:30 PM 60.8 °F - 37.4 °F 42% 29.92 in - SE 12.7 mph - N/A   Clear
1:00 PM 62.6 °F - 35.6 °F 37% 29.89 in - SSE 12.7 mph - N/A   Clear
1:30 PM 62.6 °F - 35.6 °F 37% 29.89 in - SSE 10.4 mph - N/A   Clear
2:00 PM 64.4 °F - 33.8 °F 32% 29.86 in - SSE 10.4 mph - N/A   Clear
2:30 PM 64.4 °F - 33.8 °F 32% 29.86 in - SE 10.4 mph - N/A   Clear
3:00 PM 66.2 °F - 33.8 °F 30% 29.86 in - SE 10.4 mph - N/A   Clear
3:30 PM 66.2 °F - 33.8 °F 30% 29.86 in - SSE 9.2 mph - N/A   Clear
4:00 PM 66.2 °F - 33.8 °F 30% 29.83 in - South 6.9 mph - N/A   Clear
4:30 PM 66.2 °F - 33.8 °F 30% 29.83 in - SSW 5.8 mph - N/A   Clear
5:00 PM 64.4 °F - 33.8 °F 32% 29.83 in - Calm Calm - N/A   Clear
5:30 PM 64.4 °F - 35.6 °F 34% 29.83 in - Calm Calm - N/A   Clear
6:00 PM 62.6 °F - 33.8 °F 34% 29.83 in - Calm Calm - N/A   Clear
6:30 PM 62.6 °F - 37.4 °F 39% 29.83 in - Calm Calm - N/A   Clear
7:00 PM 60.8 °F - 35.6 °F 39% 29.83 in - Calm Calm - N/A   Clear
7:30 PM 59.0 °F - 37.4 °F 45% 29.83 in - Calm Calm - N/A   Clear
8:00 PM 57.2 °F - 37.4 °F 48% 29.83 in - Calm Calm - N/A   Clear
8:30 PM 57.2 °F - 37.4 °F 48% 29.86 in - Calm Calm - N/A   Clear
9:00 PM 53.6 °F - 37.4 °F 54% 29.86 in - Calm Calm - N/A   Clear
9:30 PM 53.6 °F - 37.4 °F 54% 29.86 in - Calm Calm - N/A   Clear
10:00 PM 51.8 °F - 41.0 °F 67% 29.86 in - Calm Calm - N/A   Clear
10:30 PM 51.8 °F - 41.0 °F 67% 29.86 in - Calm Calm - N/A   Clear
11:00 PM 50.0 °F - 44.6 °F 82% 29.86 in - West 3.5 mph - N/A   Clear
11:30 PM 50.0 °F - 44.6 °F 82% 29.86 in - West 6.9 mph - N/A   Clear